Regional Weather Roundup
Issued by NWS

Home | Current Version | Previous Version | Graphics & Text | Print | Product List | Glossary Off
Versions: 1 2 3 4 5 6 7 8 9 10 11 12 13 14 15 16 17 18 19 20 21 22 23 24 25 26 27 28 29 30 31 32 33 34 35 36 37 38 39 40 41 42 43 44 45 46 47 48 49 50

000
ASUS43 KDMX 052107
RWRIA

WEATHER ROUNDUP FOR IOWA
NATIONAL WEATHER SERVICE DES MOINES IA
400 PM CDT TUE MAY 05 2015

NOTE: "FAIR" INDICATES FEW OR NO CLOUDS BELOW 12,000 FEET WITH NO
SIGNIFICANT WEATHER AND/OR OBSTRUCTIONS TO VISIBILITY.

* - THESE STATIONS ARE NOT NWS STATIONS...THUS NOT UNDER NWS
QUALITY CONTROL.  THEY ALSO DO NOT REPORT WEATHER SUCH
AS PRECIPITATION OR FOG.

IAZ001>003-012>014-020>022-031>034-043>046-052200-
   NORTHWEST IOWA

CITY           SKY/WX    TMP DP  RH WIND       PRES   REMARKS
CARROLL *      PTSUNNY   73  64  73 SE12      30.05F
CHEROKEE *     PTSUNNY   73  63  68 S8        30.03F
DENISON *      PTSUNNY   75  64  69 S13       30.02F
LE MARS *      PTSUNNY   73  61  64 S12G18    30.03F
ORANGE CITY *  MOSUNNY   70  57  64 S5        30.03F
SHELDON *      CLOUDY    64  63  94 E12       30.05F
SIOUX CITY     CLOUDY    76  60  57 S15       30.01F
SPENCER        CLOUDY    61  59  93 E14       30.07F FOG
STORM LAKE *   PTSUNNY   72  61  68 S14       30.05F
$$

IAZ055>058-069>071-079>083-090>094-052200-
   SOUTHWEST IOWA

CITY           SKY/WX    TMP DP  RH WIND       PRES   REMARKS
ATLANTIC *     PTSUNNY   75  59  57 S14       30.04F
AUDUBON *      SUNNY     75  63  64 S8        30.06F
CLARINDA *     MOSUNNY   77  59  53 S10       30.05F
COUNCIL BLFS * SUNNY     75  63  64 S13       30.03F
CRESTON *      MOSUNNY   75  61  60 S10G18    30.07F
HARLAN  *      MOSUNNY   75  64  69 S12G18    30.07F
LAMONI         MOSUNNY   79  57  46 S10       30.07F HX  80
RED OAK *      MOSUNNY   77  59  53 S14       30.03F
SHENANDOAH *   MOSUNNY   77  61  57 S13G18    30.03F
$$

IAZ047>049-059>061-072>074-084-052200-
   CENTRAL IOWA

CITY           SKY/WX    TMP DP  RH WIND       PRES   REMARKS
AMES           PTSUNNY   75  63  66 NE6       30.07F
ANKENY *       CLOUDY    73  64  73 S20G25    30.07S
CHARITON *     SUNNY     77  61  57 S8        30.07F
DES MOINES     CLOUDY    72  64  76 E5        30.07F
GRINNELL*      PTSUNNY   79  61  53 S13       30.08F HX  80
KNOXVILLE *    MOSUNNY   79  59  50 S10G17    30.06F HX  80
MARSHALLTOWN   PTSUNNY   69  65  86 E15       30.08F FOG
PELLA *        MOSUNNY   79  66  65 S9        30.08F HX  81
PERRY *        PTSUNNY   73  61  64 SE10      30.06F
$$

IAZ004>006-015-016-023>025-035-036-052200-
   NORTH CENTRAL IOWA

CITY           SKY/WX    TMP DP  RH WIND       PRES   REMARKS
ALGONA *       CLOUDY    59  59 100 E15       30.11F FOG
CLARION *      CLOUDY    61  61 100 E17       30.10F FOG
ESTHERVILLE    LGT RAIN  57  56  96 E16       30.10F FOG
FORT DODGE *   CLOUDY    64  61  88 E15       30.08F
MASON CITY     CLOUDY    55  53  93 E12       30.15F
FOREST CITY *  LGT RAIN  54  54 100 E12       30.13F
IOWA FALLS *   CLOUDY    61  59  94 E14       30.12F FOG
$$

IAZ007>011-017>019-026>030-037>042-050>054-066-052200-
   NORTHEAST IOWA

CITY           SKY/WX    TMP DP  RH WIND       PRES   REMARKS
CEDAR RAPIDS   CLOUDY    66  63  90 E12       30.11F FOG
CHARLES CITY * CLOUDY    54  54 100 E15       30.16F
CLINTON *      PTSUNNY   64  59  82 E14       30.18F
DECORAH *      LGT RAIN  52  52 100 E10       30.18F
DUBUQUE        CLOUDY    56  54  93 E6        30.18F FOG
MONTICELLO *   CLOUDY    59  59 100 E10       30.16F
OELWEIN *      CLOUDY    57  55  94 E15       30.16F
WATERLOO       CLOUDY    59  56  89 E13       30.13F
$$

IAZ064-065-067-068-078-052200-
   EAST CENTRAL IOWA

CITY           SKY/WX    TMP DP  RH WIND       PRES   REMARKS
DAVENPORT      PTSUNNY   68  62  81 E12       30.15F HAZE
IOWA CITY        N/A     69  63  81 E13       30.13F HAZE
MT. PLEASANT * PTSUNNY   79  61  53 S7        30.10F HX  80
MUSCATINE *    PTSUNNY   75  66  73 NE9       30.10F
QUAD CITIES    PTSUNNY   72  63  73 E12       30.13F HAZE
$$

IAZ062-063-075>077-085>089-095>099-052200-
   SOUTHEAST IOWA

CITY           SKY/WX    TMP DP  RH WIND       PRES   REMARKS
BURLINGTON     PTSUNNY   81  62  52 VRB5      30.09F HX  82
FAIRFIELD *    SUNNY     79  59  50 S7G14     30.09F HX  80
FORT MADISON * SUNNY     81  61  50 S8G16     30.10F HX  81
KEOKUK *       MOSUNNY   81  61  50 SW10      30.09F HX  81
OSKALOOSA *    PTSUNNY   77  63  61 CALM      30.08F
CENTERVILLE *  MOSUNNY   77  59  53 S6        30.10F
OTTUMWA        PTSUNNY   79  60  52 SW8       30.08F HX  80
WASHINGTON *   MOSUNNY   79  79 100 SE5G13    30.09F HX  83
$$

ABBREVIATIONS USED IN REMARKS
   TC - TEMPERATURES IN CELSIUS
  WCI - WIND CHILL INDEX
   HX - HEAT INDEX
  VSB - VISIBILITY
$$



USA.gov is the U.S. government's official web portal to all federal, state and local government web resources and services.